Hourly Data Report for March 26, 2020

TORONTO CITY
ONTARIO
Current Station Operator: ECCC - MSC

43°40'00.000" N
79°24'00.000" W
112.50 m
6158355
71508
XTO

Download Data

Hourly Data (March 2020)
Hourly Data Report for March 26, 2020
TIME
LST
Temp Definition
°C
Dew Point Definition
°C
Rel Hum Definition
%
Precip. Amount Definition
mm

Wind Dir Definition
10's deg

Wind Spd Definition
km/h
Visibility Definition
km
Stn Press Definition
kPa
Hmdx Definition


Wind Chill Definition


Weather Definition


00:00 4.4 1.6 82 0.0       100.01     LegendNANA
01:00 4.0 1.6 84 0.0       99.95     LegendNANA
02:00 4.3 2.2 86 0.0       99.97     LegendNANA
03:00 4.6 1.5 81 0.0       99.91     LegendNANA
04:00 4.3 1.3 81 0.0       99.85     LegendNANA
05:00 4.6 1.3 79 0.0       99.81     LegendNANA
06:00 4.5 1.4 81 0.0       99.83     LegendNANA
07:00 5.4 2.1 79 0.0       99.84     LegendNANA
08:00 6.8 2.4 74 0.0       99.74     LegendNANA
09:00 8.5 2.7 67 0.0       99.66     LegendNANA
10:00 8.9 3.4 68 0.2       99.66     LegendNANA
11:00 10.2 4.5 68 0.2       99.59     LegendNANA
12:00 10.6 4.5 66 0.0       99.45     LegendNANA
13:00 11.9 5.0 63 0.0       99.43     LegendNANA
14:00 13.7 5.3 57 0.2       99.40     LegendNANA
15:00 12.8 5.5 61 0.0       99.42     LegendNANA
16:00 11.4 5.4 66 0.2       99.45     LegendNANA
17:00 10.9 4.9 67 0.0       99.46     LegendNANA
18:00 9.2 4.0 70 0.0       99.51     LegendNANA
19:00 6.8 2.1 72 0.0       99.67     LegendNANA
20:00 5.7 1.0 72 0.0       99.71     LegendNANA
21:00 4.7 0.8 76 0.0       99.73     LegendNANA
22:00 4.7 0.9 76 0.0       99.78     LegendNANA
23:00 4.7 0.7 75 0.0       99.81     LegendNANA

Notes on Data Quality.

Legend

  • E = Estimated
  • M = Missing
  • NA = Not Available*
  • [empty] = Indicates an unobserved value
Date modified: